Regional Weather Roundup
Issued by NWS

Home | Current Version | Previous Version | Graphics & Text | Print | Product List | Glossary On
Versions: 1 2 3 4 5 6 7 8 9 10 11 12 13 14 15 16 17 18 19 20 21 22 23 24 25 26 27 28 29 30 31 32 33 34 35 36 37 38 39 40 41 42 43 44 45 46 47 48 49 50
000
ASUS43 KDMX 270103
RWRIA

WEATHER ROUNDUP FOR IOWA
NATIONAL WEATHER SERVICE DES MOINES IA
800 PM CDT THU MAY 26 2016

NOTE: "FAIR" INDICATES FEW OR NO CLOUDS BELOW 12,000 FEET WITH NO
SIGNIFICANT WEATHER AND/OR OBSTRUCTIONS TO VISIBILITY.

* - THESE STATIONS ARE NOT NWS STATIONS...THUS NOT UNDER NWS
QUALITY CONTROL.  THEY ALSO DO NOT REPORT WEATHER SUCH
AS PRECIPITATION OR FOG.

IAZ001>003-012>014-020>022-031>034-043>046-270200-
   NORTHWEST IOWA

CITY           SKY/WX    TMP DP  RH WIND       PRES   REMARKS
CARROLL *      LGT RAIN  63  59  88 S28G35    29.87F
CHEROKEE *     CLOUDY    67  62  82 SE10      29.84S
LE MARS *      CLOUDY    72  61  68 SE13G20   29.82R
ORANGE CITY *  CLEAR     72  59  64 E6        29.81F
SHELDON *      CLOUDY    70  59  68 E8        29.81F
SIOUX CITY     CLOUDY    71  58  63 SE12      29.82R
SPENCER        CLOUDY    73  56  54 SE16      29.84S
STORM LAKE *   PTCLDY    66  59  77 S14G21    29.87R
$$

IAZ055>058-069>071-079>083-090>094-270200-
   SOUTHWEST IOWA

CITY           SKY/WX    TMP DP  RH WIND       PRES   REMARKS
ATLANTIC *     RAIN      61  59  94 E13       29.94F
AUDUBON *      RAIN      63  57  82 SE15G22   29.95F
CLARINDA *       N/A     64  63  94 MISG      29.96R
COUNCIL BLFS * CLEAR     63  59  88 E22G29    29.85F
CRESTON *      LGT RAIN  63  61  94 N10       29.95F
HARLAN  *      CLOUDY    63  57  82 SE17G25   29.94R
LAMONI         LGT RAIN  62  61  96 E8        29.90F
RED OAK *      LGT RAIN  63  61  94 E12G17    29.91F
SHENANDOAH *   CLOUDY    63  63 100 E18G33    29.90S
$$

IAZ047>049-059>061-072>074-084-270200-
   CENTRAL IOWA

CITY           SKY/WX    TMP DP  RH WIND       PRES   REMARKS
AMES           LGT RAIN  64  60  87 W23G31    29.95R
ANKENY *       LGT RAIN  64  63  94 W9        29.98R
BOONE *        RAIN      63  61  94 W15G26    29.95R
CHARITON *     RAIN      64  63  94 NW9       29.98R
DES MOINES     RAIN      66  60  81 SW10      29.97S
GRINNELL*      RAIN      68  64  88 SW22G31   29.93R
KNOXVILLE *    LGT RAIN  66  63  88 W10       29.98R
MARSHALLTOWN   CLOUDY    73  64  73 SW12      29.91R
NEWTON *       CLOUDY    66  61  82 SW14G29   29.95R HAZE
PELLA *        LGT RAIN  66  64  91 W16       29.98R
PERRY *        RAIN      64  61  88 SW17      30.00R
$$

IAZ004>006-015-016-023>025-035-036-270200-
   NORTH CENTRAL IOWA

CITY           SKY/WX    TMP DP  RH WIND       PRES   REMARKS
ALGONA *       CLOUDY    73  61  64 SE6       29.85S
CLARION *      CLOUDY    70  61  73 SW24G37   29.88R
ESTHERVILLE    CLOUDY    69  59  70 SE7       29.86R
FORT DODGE *   CLOUDY    66  55  68 S17G25    29.87S
MASON CITY     CLOUDY    71  65  81 S9        29.88R
FOREST CITY *  CLEAR     68  61  77 S3        29.85F
WEBSTER CITY * CLOUDY    66  59  77 S26G35    29.83F
IOWA FALLS *     N/A     75  64  69 S14       29.91R
$$

IAZ007>011-017>019-026>030-037>042-050>054-066-270200-
   NORTHEAST IOWA

CITY           SKY/WX    TMP DP  RH WIND       PRES   REMARKS
CEDAR RAPIDS   CLOUDY    73  66  78 W8        29.87R
CHARLES CITY * CLEAR     75  63  64 CALM      29.87R
CLINTON *      CLOUDY    79  68  69 CALM      29.86R HX  81
DECORAH *      CLOUDY    75  59  57 CALM      29.87R
DUBUQUE        CLOUDY    75  60  59 SE3       29.89R
MONTICELLO *   CLOUDY    77  61  57 CALM      29.86R
OELWEIN *      CLOUDY    73  64  73 SW5       29.90R
WATERLOO       CLOUDY    73  64  73 SW9       29.89R
$$

IAZ064-065-067-068-078-270200-
   EAST CENTRAL IOWA

CITY           SKY/WX    TMP DP  RH WIND       PRES   REMARKS
DAVENPORT      CLOUDY    79  66  64 W3        29.86R HX  81
IOWA CITY      CLOUDY    78  63  59 W5        29.88R HX  80
MT. PLEASANT * CLOUDY    79  66  65 W5        29.88R HX  81
MUSCATINE *    CLOUDY    79  64  61 SW9       29.87R HX  81
QUAD CITIES    CLOUDY    80  64  58 S3        29.84R HX  82
$$

IAZ062-063-075>077-085>089-095>099-270200-
   SOUTHEAST IOWA

CITY           SKY/WX    TMP DP  RH WIND       PRES   REMARKS
BURLINGTON     CLOUDY    75  69  81 NW6       29.87R
FAIRFIELD *      N/A    N/A N/A N/A MISG        N/A
FORT MADISON * CLOUDY    73  66  78 CALM      29.89R
KEOKUK *       CLOUDY    75  68  78 CALM      29.88R
OSKALOOSA *    RAIN      68  64  88 W23G30    29.92R
OTTUMWA        LGT RAIN  68  63  84 W20G29    29.89F
WASHINGTON *   CLEAR     77  75  94 W12       29.89R
$$

ABBREVIATIONS USED IN REMARKS
   TC - TEMPERATURES IN CELSIUS
  WCI - WIND CHILL INDEX
   HX - HEAT INDEX
  VSB - VISIBILITY
$$





USA.gov is the U.S. government's official web portal to all federal, state and local government web resources and services.